Time,TemperatureF,DewpointF,PressureIn,WindDirection,WindDirectionDegrees,WindSpeedMPH,WindSpeedGustMPH,Humidity,HourlyPrecipIn,Conditions,Clouds,dailyrainin,SoftwareType,DateUTC
2013-02-14 02:30:00,22.2,18.4,29.80,West,271,0.0,7.0,85,0.00,,,0.00,Wunderground v.1.15,2013-02-14 07:30:00,
2013-02-14 02:31:00,22.2,18.4,29.80,West,271,0.0,7.0,85,0.00,,,0.00,Wunderground v.1.15,2013-02-14 07:31:00,
2013-02-14 02:32:00,22.2,18.4,29.80,West,271,0.0,7.0,85,0.00,,,0.00,Wunderground v.1.15,2013-02-14 07:32:00,
2013-02-14 02:35:00,22.1,18.3,29.81,West,271,0.0,7.0,85,0.00,,,0.00,Wunderground v.1.15,2013-02-14 07:35:00,
2013-02-14 02:40:00,21.7,17.6,29.81,West,271,0.0,0.0,84,0.00,,,0.00,Wunderground v.1.15,2013-02-14 07:40:00,
2013-02-14 02:45:00,20.9,16.5,29.81,West,271,0.0,0.0,83,0.00,,,0.00,Wunderground v.1.15,2013-02-14 07:45:00,
2013-02-14 02:50:00,20.7,17.2,29.81,West,271,0.0,0.0,86,0.00,,,0.00,Wunderground v.1.15,2013-02-14 07:50:00,
2013-02-14 02:55:00,20.6,17.3,29.81,West,271,0.0,0.0,87,0.00,,,0.00,Wunderground v.1.15,2013-02-14 07:55:00,
2013-02-14 03:00:00,20.4,17.1,29.81,West,271,0.0,0.0,87,0.00,,,0.00,Wunderground v.1.15,2013-02-14 08:00:00,
2013-02-14 03:05:00,19.9,16.7,29.81,West,271,0.0,1.0,87,0.00,,,0.00,Wunderground v.1.15,2013-02-14 08:05:00,
2013-02-14 03:11:00,20.0,17.0,29.81,West,271,0.0,1.0,88,0.00,,,0.00,Wunderground v.1.15,2013-02-14 08:11:00,
2013-02-14 03:16:00,19.9,16.9,29.81,West,271,0.0,1.0,88,0.00,,,0.00,Wunderground v.1.15,2013-02-14 08:16:00,
2013-02-14 03:21:00,20.0,17.3,29.81,West,271,0.0,1.0,89,0.00,,,0.00,Wunderground v.1.15,2013-02-14 08:21:00,
2013-02-14 03:26:00,20.0,17.0,29.82,West,271,0.0,1.0,88,0.00,,,0.00,Wunderground v.1.15,2013-02-14 08:26:00,
2013-02-14 08:17:00,21.0,18.5,29.94,SSW,198,0.0,1.0,90,0.00,,,0.00,Wunderground v.1.15,2013-02-14 13:17:00,
2013-02-14 08:23:00,21.4,18.7,29.95,WSW,253,0.0,1.0,89,0.00,,,0.00,Wunderground v.1.15,2013-02-14 13:23:00,
2013-02-14 08:28:00,21.7,19.0,29.95,SW,235,1.0,1.0,89,0.00,,,0.00,Wunderground v.1.15,2013-02-14 13:28:00,
2013-02-14 08:33:00,22.0,19.0,29.95,SW,221,1.0,2.0,88,0.00,,,0.00,Wunderground v.1.15,2013-02-14 13:33:00,
2013-02-14 08:38:00,22.3,19.3,29.95,SSW,203,1.0,1.0,88,0.00,,,0.00,Wunderground v.1.15,2013-02-14 13:38:00,
2013-02-14 08:43:00,22.8,19.8,29.95,SSW,195,0.0,1.0,88,0.00,,,0.00,Wunderground v.1.15,2013-02-14 13:43:00,
2013-02-14 08:49:00,23.3,20.0,29.95,SSW,198,0.0,1.0,87,0.00,,,0.00,Wunderground v.1.15,2013-02-14 13:49:00,
2013-02-14 08:54:00,23.6,20.0,29.95,SSW,211,0.0,1.0,86,0.00,,,0.00,Wunderground v.1.15,2013-02-14 13:54:00,
2013-02-14 08:59:00,23.9,20.3,29.96,SSW,211,0.0,1.0,86,0.00,,,0.00,Wunderground v.1.15,2013-02-14 13:59:00,
2013-02-14 09:04:00,24.4,20.8,29.96,SSW,211,0.0,1.0,86,0.00,,,0.00,Wunderground v.1.15,2013-02-14 14:04:00,
2013-02-14 09:09:00,24.9,21.0,29.96,SSW,211,0.0,1.0,85,0.00,,,0.00,Wunderground v.1.15,2013-02-14 14:09:00,
2013-02-14 09:15:00,25.2,21.0,29.96,WSW,253,0.0,1.0,84,0.00,,,0.00,Wunderground v.1.15,2013-02-14 14:15:00,
2013-02-14 09:20:00,25.4,21.0,29.96,SW,218,0.0,2.0,83,0.00,,,0.00,Wunderground v.1.15,2013-02-14 14:20:00,
2013-02-14 09:25:00,25.5,21.1,29.96,SW,215,1.0,2.0,83,0.00,,,0.00,Wunderground v.1.15,2013-02-14 14:25:00,
2013-02-14 09:30:00,25.7,21.3,29.96,SW,224,1.0,1.0,83,0.00,,,0.00,Wunderground v.1.15,2013-02-14 14:30:00,
2013-02-14 09:35:00,25.7,21.3,29.97,WSW,240,1.0,1.0,83,0.00,,,0.00,Wunderground v.1.15,2013-02-14 14:35:00,
2013-02-14 09:41:00,25.9,21.4,29.97,SW,216,1.0,1.0,83,0.00,,,0.00,Wunderground v.1.15,2013-02-14 14:41:00,
2013-02-14 09:46:00,26.1,21.4,29.97,WNW,295,1.0,2.0,82,0.00,,,0.00,Wunderground v.1.15,2013-02-14 14:46:00,
2013-02-14 09:51:00,26.1,21.4,29.97,WSW,242,1.0,3.0,82,0.00,,,0.00,Wunderground v.1.15,2013-02-14 14:51:00,
2013-02-14 09:56:00,26.2,21.7,29.98,West,281,1.0,3.0,83,0.00,,,0.00,Wunderground v.1.15,2013-02-14 14:56:00,
2013-02-14 10:01:00,26.3,21.8,29.98,SW,222,1.0,1.0,83,0.00,,,0.00,Wunderground v.1.15,2013-02-14 15:01:00,
2013-02-14 10:07:00,26.4,21.9,29.98,SW,234,1.0,4.0,83,0.00,,,0.00,Wunderground v.1.15,2013-02-14 15:07:00,
2013-02-14 10:12:00,26.5,22.0,29.98,SSW,210,1.0,4.0,83,0.00,,,0.00,Wunderground v.1.15,2013-02-14 15:12:00,
2013-02-14 10:17:00,26.5,22.0,29.98,WSW,257,2.0,4.0,83,0.00,,,0.00,Wunderground v.1.15,2013-02-14 15:17:00,
2013-02-14 10:22:00,26.7,22.2,29.98,West,269,2.0,2.0,83,0.00,,,0.00,Wunderground v.1.15,2013-02-14 15:22:00,
2013-02-14 10:27:00,26.8,22.3,29.97,West,280,2.0,4.0,83,0.00,,,0.00,Wunderground v.1.15,2013-02-14 15:27:00,
2013-02-14 10:32:00,27.2,22.7,29.97,SSW,203,2.0,2.0,83,0.00,,,0.00,Wunderground v.1.15,2013-02-14 15:32:00,
2013-02-14 10:37:00,27.6,22.8,29.97,SSW,201,1.0,3.0,82,0.00,,,0.00,Wunderground v.1.15,2013-02-14 15:37:00,
2013-02-14 10:42:00,27.5,22.7,29.97,West,280,2.0,3.0,82,0.00,,,0.00,Wunderground v.1.15,2013-02-14 15:42:00,
2013-02-14 10:48:00,27.4,22.9,29.97,WNW,297,3.0,4.0,83,0.00,,,0.00,Wunderground v.1.15,2013-02-14 15:48:00,
2013-02-14 10:53:00,27.5,23.0,29.97,WNW,285,3.0,4.0,83,0.00,,,0.00,Wunderground v.1.15,2013-02-14 15:53:00,
2013-02-14 10:58:00,27.3,22.8,29.97,West,277,3.0,4.0,83,0.00,,,0.00,Wunderground v.1.15,2013-02-14 15:58:00,
2013-02-14 11:03:00,27.5,23.0,29.97,WSW,242,3.0,5.0,83,0.00,,,0.00,Wunderground v.1.15,2013-02-14 16:03:00,
2013-02-14 11:08:00,27.5,23.0,29.97,WSW,255,3.0,5.0,83,0.00,,,0.00,Wunderground v.1.15,2013-02-14 16:08:00,
2013-02-14 11:13:00,27.6,23.1,29.97,WNW,293,3.0,3.0,83,0.00,,,0.00,Wunderground v.1.15,2013-02-14 16:13:00,
2013-02-14 11:18:00,27.8,23.0,29.97,WNW,285,2.0,3.0,82,0.00,,,0.00,Wunderground v.1.15,2013-02-14 16:18:00,
2013-02-14 11:23:00,27.7,22.9,29.97,West,281,2.0,3.0,82,0.00,,,0.00,Wunderground v.1.15,2013-02-14 16:23:00,
2013-02-14 11:29:00,28.0,23.5,29.97,WNW,284,2.0,4.0,83,0.00,,,0.00,Wunderground v.1.15,2013-02-14 16:29:00,
2013-02-14 11:34:00,28.2,23.4,29.96,NW,310,2.0,2.0,82,0.00,,,0.00,Wunderground v.1.15,2013-02-14 16:34:00,
2013-02-14 11:39:00,28.1,23.0,29.96,WNW,285,2.0,3.0,81,0.00,,,0.00,Wunderground v.1.15,2013-02-14 16:39:00,
2013-02-14 11:44:00,28.2,23.1,29.96,SW,219,2.0,2.0,81,0.00,,,0.00,Wunderground v.1.15,2013-02-14 16:44:00,
2013-02-14 11:49:00,28.5,23.4,29.96,SSW,208,1.0,2.0,81,0.00,,,0.00,Wunderground v.1.15,2013-02-14 16:49:00,
2013-02-14 11:55:00,28.9,23.8,29.96,West,264,1.0,4.0,81,0.00,,,0.00,Wunderground v.1.15,2013-02-14 16:55:00,
2013-02-14 12:00:00,29.0,23.3,29.96,SSW,200,2.0,2.0,79,0.00,,,0.00,Wunderground v.1.15,2013-02-14 17:00:00,
2013-02-14 12:05:00,29.1,23.7,29.96,West,278,2.0,2.0,80,0.00,,,0.00,Wunderground v.1.15,2013-02-14 17:05:00,
2013-02-14 12:10:00,29.0,23.3,29.95,SSW,207,2.0,3.0,79,0.00,,,0.00,Wunderground v.1.15,2013-02-14 17:10:00,
2013-02-14 12:15:00,29.2,23.5,29.95,NW,304,3.0,3.0,79,0.00,,,0.00,Wunderground v.1.15,2013-02-14 17:15:00,
2013-02-14 12:21:00,29.7,24.3,29.95,SSW,205,2.0,2.0,80,0.00,,,0.00,Wunderground v.1.15,2013-02-14 17:21:00,
2013-02-14 12:26:00,30.1,24.1,29.95,SW,215,2.0,5.0,78,0.00,,,0.00,Wunderground v.1.15,2013-02-14 17:26:00,
2013-02-14 12:31:00,30.4,24.1,29.95,WNW,283,2.0,4.0,77,0.00,,,0.00,Wunderground v.1.15,2013-02-14 17:31:00,
2013-02-14 12:36:00,30.1,23.4,29.95,NW,305,2.0,4.0,76,0.00,,,0.00,Wunderground v.1.15,2013-02-14 17:36:00,
2013-02-14 12:41:00,30.6,24.2,29.95,West,278,2.0,4.0,77,0.00,,,0.00,Wunderground v.1.15,2013-02-14 17:41:00,
2013-02-14 12:47:00,30.9,24.2,29.95,West,259,2.0,4.0,76,0.00,,,0.00,Wunderground v.1.15,2013-02-14 17:47:00,
2013-02-14 12:52:00,31.0,24.0,29.95,SW,217,2.0,2.0,75,0.00,,,0.00,Wunderground v.1.15,2013-02-14 17:52:00,
2013-02-14 12:57:00,31.2,24.2,29.95,West,271,2.0,3.0,75,0.00,,,0.00,Wunderground v.1.15,2013-02-14 17:57:00,
2013-02-14 13:02:00,31.5,24.5,29.95,SW,231,2.0,4.0,75,0.00,,,0.00,Wunderground v.1.15,2013-02-14 18:02:00,
2013-02-14 13:07:00,31.3,24.3,29.95,North,354,2.0,4.0,75,0.00,,,0.00,Wunderground v.1.15,2013-02-14 18:07:00,
2013-02-14 13:13:00,32.2,24.5,29.94,West,271,1.0,5.0,73,0.00,,,0.00,Wunderground v.1.15,2013-02-14 18:13:00,
2013-02-14 13:18:00,31.9,24.2,29.95,NW,313,1.0,5.0,73,0.00,,,0.00,Wunderground v.1.15,2013-02-14 18:18:00,
2013-02-14 13:23:00,31.7,24.4,29.95,SW,215,1.0,2.0,74,0.00,,,0.00,Wunderground v.1.15,2013-02-14 18:23:00,
2013-02-14 13:28:00,32.8,24.8,29.94,NW,312,1.0,2.0,72,0.00,,,0.00,Wunderground v.1.15,2013-02-14 18:28:00,
2013-02-14 13:33:00,33.6,25.2,29.94,WNW,289,1.0,4.0,71,0.00,,,0.00,Wunderground v.1.15,2013-02-14 18:33:00,
2013-02-14 13:39:00,33.4,24.7,29.94,NW,311,2.0,4.0,70,0.00,,,0.00,Wunderground v.1.15,2013-02-14 18:39:00,
2013-02-14 13:44:00,33.5,24.4,29.94,WNW,302,2.0,4.0,69,0.00,,,0.00,Wunderground v.1.15,2013-02-14 18:44:00,
2013-02-14 13:49:00,34.0,24.9,29.94,SSW,204,2.0,4.0,69,0.00,,,0.00,Wunderground v.1.15,2013-02-14 18:49:00,
2013-02-14 13:54:00,34.5,25.4,29.94,SSW,209,1.0,3.0,69,0.00,,,0.00,Wunderground v.1.15,2013-02-14 18:54:00,
2013-02-14 13:59:00,35.3,25.4,29.94,NW,319,1.0,3.0,67,0.00,,,0.00,Wunderground v.1.15,2013-02-14 18:59:00,
2013-02-14 14:05:00,36.2,25.9,29.93,SW,226,1.0,3.0,66,0.00,,,0.00,Wunderground v.1.15,2013-02-14 19:05:00,
2013-02-14 14:10:00,36.4,25.4,29.93,SE,146,1.0,1.0,64,0.00,,,0.00,Wunderground v.1.15,2013-02-14 19:10:00,
2013-02-14 14:15:00,36.9,25.9,29.93,West,263,2.0,3.0,64,0.00,,,0.00,Wunderground v.1.15,2013-02-14 19:15:00,
2013-02-14 14:20:00,36.8,25.4,29.94,SSE,155,1.0,3.0,63,0.00,,,0.00,Wunderground v.1.15,2013-02-14 19:20:00,
2013-02-14 14:25:00,36.9,25.5,29.94,WSW,257,2.0,3.0,63,0.00,,,0.00,Wunderground v.1.15,2013-02-14 19:25:00,
2013-02-14 14:31:00,36.1,25.1,29.94,WNW,289,2.0,6.0,64,0.00,,,0.00,Wunderground v.1.15,2013-02-14 19:31:00,
2013-02-14 14:36:00,36.2,25.2,29.94,NW,307,2.0,6.0,64,0.00,,,0.00,Wunderground v.1.15,2013-02-14 19:36:00,
2013-02-14 14:41:00,37.1,25.3,29.94,SSW,205,2.0,2.0,62,0.00,,,0.00,Wunderground v.1.15,2013-02-14 19:41:00,
2013-02-14 14:46:00,38.0,25.7,29.94,West,267,1.0,2.0,61,0.00,,,0.00,Wunderground v.1.15,2013-02-14 19:46:00,
2013-02-14 14:51:00,38.3,25.6,29.94,SE,135,2.0,2.0,60,0.00,,,0.00,Wunderground v.1.15,2013-02-14 19:51:00,
2013-02-14 14:56:00,38.3,25.2,29.95,SW,217,2.0,3.0,59,0.00,,,0.00,Wunderground v.1.15,2013-02-14 19:56:00,
2013-02-14 15:01:00,38.3,25.6,29.95,SSE,156,2.0,3.0,60,0.00,,,0.00,Wunderground v.1.15,2013-02-14 20:01:00,
2013-02-14 15:06:00,38.3,25.2,29.95,WSW,239,3.0,3.0,59,0.00,,,0.00,Wunderground v.1.15,2013-02-14 20:06:00,
2013-02-14 15:11:00,38.5,25.0,29.94,WSW,255,3.0,3.0,58,0.00,,,0.00,Wunderground v.1.15,2013-02-14 20:11:00,
2013-02-14 15:16:00,38.5,25.8,29.94,WSW,238,2.0,5.0,60,0.00,,,0.00,Wunderground v.1.15,2013-02-14 20:16:00,
2013-02-14 15:21:00,38.6,25.9,29.94,SW,235,2.0,3.0,60,0.00,,,0.00,Wunderground v.1.15,2013-02-14 20:21:00,
2013-02-14 15:27:00,39.3,25.7,29.94,West,280,2.0,4.0,58,0.00,,,0.00,Wunderground v.1.15,2013-02-14 20:27:00,
2013-02-14 15:32:00,39.2,25.2,29.94,West,259,2.0,4.0,57,0.00,,,0.00,Wunderground v.1.15,2013-02-14 20:32:00,
2013-02-14 15:37:00,38.5,25.0,29.94,West,277,3.0,4.0,58,0.00,,,0.00,Wunderground v.1.15,2013-02-14 20:37:00,
2013-02-14 15:42:00,38.6,25.5,29.94,NE,35,3.0,3.0,59,0.00,,,0.00,Wunderground v.1.15,2013-02-14 20:42:00,
2013-02-14 15:47:00,39.0,25.5,29.95,WSW,241,2.0,4.0,58,0.00,,,0.00,Wunderground v.1.15,2013-02-14 20:47:00,
2013-02-14 15:53:00,38.5,25.0,29.95,SE,145,2.0,3.0,58,0.00,,,0.00,Wunderground v.1.15,2013-02-14 20:53:00,
2013-02-14 15:58:00,38.4,24.9,29.95,WSW,257,2.0,3.0,58,0.00,,,0.00,Wunderground v.1.15,2013-02-14 20:58:00,
2013-02-14 16:03:00,38.4,24.9,29.94,SW,229,2.0,3.0,58,0.00,,,0.00,Wunderground v.1.15,2013-02-14 21:03:00,
2013-02-14 16:08:00,38.7,24.8,29.94,West,270,2.0,3.0,57,0.00,,,0.00,Wunderground v.1.15,2013-02-14 21:08:00,
2013-02-14 16:13:00,38.4,24.5,29.94,West,273,2.0,4.0,57,0.00,,,0.00,Wunderground v.1.15,2013-02-14 21:13:00,
2013-02-14 16:19:00,38.0,24.9,29.94,SW,226,1.0,4.0,59,0.00,,,0.00,Wunderground v.1.15,2013-02-14 21:19:00,
2013-02-14 16:24:00,37.5,24.9,29.94,West,270,1.0,2.0,60,0.00,,,0.00,Wunderground v.1.15,2013-02-14 21:24:00,
2013-02-14 16:29:00,36.8,24.6,29.95,WSW,256,1.0,2.0,61,0.00,,,0.00,Wunderground v.1.15,2013-02-14 21:29:00,
2013-02-14 16:34:00,36.2,24.0,29.95,SW,226,1.0,2.0,61,0.00,,,0.00,Wunderground v.1.15,2013-02-14 21:34:00,
2013-02-14 16:39:00,35.8,24.0,29.95,SSW,205,1.0,2.0,62,0.00,,,0.00,Wunderground v.1.15,2013-02-14 21:39:00,
2013-02-14 16:45:00,35.7,24.3,29.95,SSW,201,0.0,1.0,63,0.00,,,0.00,Wunderground v.1.15,2013-02-14 21:45:00,
2013-02-14 16:50:00,35.5,24.1,29.95,South,173,0.0,1.0,63,0.00,,,0.00,Wunderground v.1.15,2013-02-14 21:50:00,
2013-02-14 16:55:00,35.3,24.0,29.95,SW,218,1.0,1.0,63,0.00,,,0.00,Wunderground v.1.15,2013-02-14 21:55:00,
2013-02-14 17:00:00,35.4,24.4,29.95,WNW,283,1.0,1.0,64,0.00,,,0.00,Wunderground v.1.15,2013-02-14 22:00:00,
2013-02-14 17:05:00,35.2,23.9,29.95,West,278,1.0,3.0,63,0.00,,,0.00,Wunderground v.1.15,2013-02-14 22:05:00,
2013-02-14 17:11:00,34.8,23.9,29.95,SW,226,1.0,3.0,64,0.00,,,0.00,Wunderground v.1.15,2013-02-14 22:11:00,
2013-02-14 17:16:00,34.5,23.6,29.95,South,187,1.0,3.0,64,0.00,,,0.00,Wunderground v.1.15,2013-02-14 22:16:00,
2013-02-14 17:21:00,34.1,23.6,29.96,SSW,208,0.0,1.0,65,0.00,,,0.00,Wunderground v.1.15,2013-02-14 22:21:00,
2013-02-14 17:26:00,33.6,23.4,29.96,West,261,0.0,1.0,66,0.00,,,0.00,Wunderground v.1.15,2013-02-14 22:26:00,
2013-02-14 17:31:00,33.2,23.4,29.96,SW,235,0.0,1.0,67,0.00,,,0.00,Wunderground v.1.15,2013-02-14 22:31:00,
2013-02-14 17:37:00,32.9,23.1,29.96,SW,233,1.0,1.0,67,0.00,,,0.00,Wunderground v.1.15,2013-02-14 22:37:00,
2013-02-14 17:42:00,32.7,22.9,29.96,SSE,150,1.0,1.0,67,0.00,,,0.00,Wunderground v.1.15,2013-02-14 22:42:00,
2013-02-14 17:47:00,32.5,23.1,29.96,SSE,150,0.0,1.0,68,0.00,,,0.00,Wunderground v.1.15,2013-02-14 22:47:00,
2013-02-14 17:52:00,32.3,22.9,29.96,SSE,150,0.0,1.0,68,0.00,,,0.00,Wunderground v.1.15,2013-02-14 22:52:00,
2013-02-14 17:57:00,32.1,23.1,29.96,SE,129,0.0,1.0,69,0.00,,,0.00,Wunderground v.1.15,2013-02-14 22:57:00,
2013-02-14 18:03:00,31.8,22.8,29.96,SE,129,0.0,1.0,69,0.00,,,0.00,Wunderground v.1.15,2013-02-14 23:03:00,
2013-02-14 18:08:00,31.3,22.6,29.97,SE,130,0.0,1.0,70,0.00,,,0.00,Wunderground v.1.15,2013-02-14 23:08:00,
2013-02-14 18:13:00,30.8,22.2,29.97,SE,129,0.0,1.0,70,0.00,,,0.00,Wunderground v.1.15,2013-02-14 23:13:00,
2013-02-14 18:18:00,30.2,22.3,29.97,SE,129,0.0,1.0,72,0.00,,,0.00,Wunderground v.1.15,2013-02-14 23:18:00,
2013-02-14 18:23:00,29.8,22.5,29.97,WSW,249,0.0,1.0,74,0.00,,,0.00,Wunderground v.1.15,2013-02-14 23:23:00,
2013-02-14 18:29:00,29.6,22.6,29.97,NE,44,1.0,2.0,75,0.00,,,0.00,Wunderground v.1.15,2013-02-14 23:29:00,
2013-02-14 18:34:00,29.8,22.8,29.97,NE,42,1.0,1.0,75,0.00,,,0.00,Wunderground v.1.15,2013-02-14 23:34:00,
2013-02-14 18:39:00,30.1,23.1,29.97,NNE,29,1.0,1.0,75,0.00,,,0.00,Wunderground v.1.15,2013-02-14 23:39:00,
2013-02-14 18:44:00,30.3,23.3,29.97,NNE,29,1.0,1.0,75,0.00,,,0.00,Wunderground v.1.15,2013-02-14 23:44:00,
2013-02-14 18:49:00,30.4,23.1,29.97,NNE,22,1.0,2.0,74,0.00,,,0.00,Wunderground v.1.15,2013-02-14 23:49:00,
2013-02-14 18:55:00,30.3,23.3,29.98,North,353,0.0,2.0,75,0.00,,,0.00,Wunderground v.1.15,2013-02-14 23:55:00,
2013-02-14 19:01:00,30.1,23.1,29.98,WNW,297,1.0,1.0,75,0.00,,,0.00,Wunderground v.1.15,2013-02-15 00:01:00,
2013-02-14 19:06:00,29.9,22.6,29.97,SW,221,0.0,1.0,74,0.00,,,0.00,Wunderground v.1.15,2013-02-15 00:06:00,
2013-02-14 19:12:00,30.4,22.8,29.97,West,276,0.0,1.0,73,0.00,,,0.00,Wunderground v.1.15,2013-02-15 00:12:00,
2013-02-14 19:17:00,30.6,23.0,29.97,SSW,208,0.0,1.0,73,0.00,,,0.00,Wunderground v.1.15,2013-02-15 00:17:00,
2013-02-14 19:22:00,30.7,22.7,29.97,SSE,162,0.0,1.0,72,0.00,,,0.00,Wunderground v.1.15,2013-02-15 00:22:00,
2013-02-14 19:27:00,30.9,22.9,29.97,SSW,193,0.0,2.0,72,0.00,,,0.00,Wunderground v.1.15,2013-02-15 00:27:00,
2013-02-14 19:32:00,30.7,22.7,29.97,SW,228,0.0,1.0,72,0.00,,,0.00,Wunderground v.1.15,2013-02-15 00:32:00,
2013-02-14 19:38:00,30.7,22.7,29.97,South,187,0.0,2.0,72,0.00,,,0.00,Wunderground v.1.15,2013-02-15 00:38:00,
2013-02-14 19:43:00,30.7,22.7,29.97,WSW,240,0.0,1.0,72,0.00,,,0.00,Wunderground v.1.15,2013-02-15 00:43:00,
2013-02-14 19:48:00,30.7,22.7,29.97,West,273,0.0,1.0,72,0.00,,,0.00,Wunderground v.1.15,2013-02-15 00:48:00,
2013-02-14 19:53:00,30.5,22.5,29.97,SW,224,0.0,1.0,72,0.00,,,0.00,Wunderground v.1.15,2013-02-15 00:53:00,
2013-02-14 19:58:00,30.4,22.4,29.97,SW,224,0.0,1.0,72,0.00,,,0.00,Wunderground v.1.15,2013-02-15 00:58:00,
2013-02-14 20:03:00,30.5,22.5,29.97,SSW,193,0.0,1.0,72,0.00,,,0.00,Wunderground v.1.15,2013-02-15 01:03:00,
2013-02-14 20:08:00,30.5,22.2,29.97,SSW,213,0.0,1.0,71,0.00,,,0.00,Wunderground v.1.15,2013-02-15 01:08:00,
2013-02-14 20:13:00,30.6,22.3,29.97,SSE,159,0.0,2.0,71,0.00,,,0.00,Wunderground v.1.15,2013-02-15 01:13:00,
2013-02-14 20:18:00,30.7,22.4,29.97,SSE,166,0.0,2.0,71,0.00,,,0.00,Wunderground v.1.15,2013-02-15 01:18:00,
2013-02-14 20:23:00,30.6,22.3,29.97,SSE,166,0.0,1.0,71,0.00,,,0.00,Wunderground v.1.15,2013-02-15 01:23:00,
2013-02-14 20:28:00,30.4,22.1,29.96,SE,139,0.0,1.0,71,0.00,,,0.00,Wunderground v.1.15,2013-02-15 01:28:00,
2013-02-14 20:34:00,30.3,22.0,29.96,SSW,204,0.0,1.0,71,0.00,,,0.00,Wunderground v.1.15,2013-02-15 01:34:00,
2013-02-14 20:39:00,30.2,22.3,29.97,SW,221,0.0,1.0,72,0.00,,,0.00,Wunderground v.1.15,2013-02-15 01:39:00,
2013-02-14 20:44:00,30.4,22.4,29.97,SE,146,1.0,2.0,72,0.00,,,0.00,Wunderground v.1.15,2013-02-15 01:44:00,
2013-02-14 20:49:00,30.5,22.2,29.97,SW,214,1.0,2.0,71,0.00,,,0.00,Wunderground v.1.15,2013-02-15 01:49:00,
2013-02-14 20:54:00,30.8,22.5,29.97,SSW,212,1.0,2.0,71,0.00,,,0.00,Wunderground v.1.15,2013-02-15 01:54:00,
2013-02-14 21:00:00,31.0,22.7,29.98,SW,215,1.0,2.0,71,0.00,,,0.00,Wunderground v.1.15,2013-02-15 02:00:00,
2013-02-14 21:05:00,31.4,22.7,29.98,West,264,2.0,3.0,70,0.00,,,0.00,Wunderground v.1.15,2013-02-15 02:05:00,
2013-02-14 21:10:00,31.6,23.3,29.98,WSW,239,2.0,4.0,71,0.00,,,0.00,Wunderground v.1.15,2013-02-15 02:10:00,
2013-02-14 21:15:00,32.0,23.3,29.97,SSW,210,2.0,4.0,70,0.00,,,0.00,Wunderground v.1.15,2013-02-15 02:15:00,
2013-02-14 21:20:00,32.3,23.6,29.98,SSW,210,3.0,5.0,70,0.00,,,0.00,Wunderground v.1.15,2013-02-15 02:20:00,
2013-02-14 21:26:00,32.7,24.3,29.98,SSE,149,3.0,6.0,71,0.00,,,0.00,Wunderground v.1.15,2013-02-15 02:26:00,
2013-02-14 21:31:00,32.7,24.7,29.98,SW,215,3.0,5.0,72,0.00,,,0.00,Wunderground v.1.15,2013-02-15 02:31:00,
2013-02-14 21:36:00,32.6,25.6,29.98,SSW,208,3.0,5.0,75,0.00,,,0.00,Wunderground v.1.15,2013-02-15 02:36:00,
2013-02-14 21:41:00,32.3,26.2,29.98,SSW,211,4.0,4.0,78,0.00,,,0.00,Wunderground v.1.15,2013-02-15 02:41:00,
2013-02-14 21:46:00,31.9,26.4,29.98,SSW,200,4.0,5.0,80,0.00,,,0.00,Wunderground v.1.15,2013-02-15 02:46:00,
2013-02-14 21:52:00,31.6,26.7,29.98,SSE,156,3.0,3.0,82,0.00,,,0.00,Wunderground v.1.15,2013-02-15 02:52:00,
2013-02-14 21:57:00,31.3,27.0,29.98,SSW,210,3.0,4.0,84,0.00,,,0.00,Wunderground v.1.15,2013-02-15 02:57:00,
2013-02-14 22:02:00,31.0,27.3,29.98,SSW,205,2.0,3.0,86,0.00,,,0.00,Wunderground v.1.15,2013-02-15 03:02:00,
2013-02-14 22:07:00,30.8,27.4,29.98,SW,232,2.0,5.0,87,0.00,,,0.00,Wunderground v.1.15,2013-02-15 03:07:00,
2013-02-14 22:12:00,30.6,27.5,29.98,SW,222,2.0,3.0,88,0.00,,,0.00,Wunderground v.1.15,2013-02-15 03:12:00,
2013-02-14 22:18:00,30.5,27.6,29.97,SW,219,2.0,4.0,89,0.00,,,0.00,Wunderground v.1.15,2013-02-15 03:18:00,
2013-02-14 22:23:00,30.3,27.7,29.97,WSW,243,2.0,4.0,90,0.00,,,0.00,Wunderground v.1.15,2013-02-15 03:23:00,
2013-02-14 22:28:00,30.2,27.6,29.97,SSW,210,2.0,4.0,90,0.00,,,0.00,Wunderground v.1.15,2013-02-15 03:28:00,
2013-02-14 22:33:00,30.1,27.8,29.97,WSW,250,2.0,2.0,91,0.00,,,0.00,Wunderground v.1.15,2013-02-15 03:33:00,
2013-02-14 22:38:00,30.1,27.8,29.97,SSW,200,1.0,2.0,91,0.00,,,0.00,Wunderground v.1.15,2013-02-15 03:38:00,
2013-02-14 22:44:00,30.0,27.7,29.97,SSW,211,1.0,2.0,91,0.00,,,0.00,Wunderground v.1.15,2013-02-15 03:44:00,
2013-02-14 22:49:00,30.1,27.8,29.97,SSE,159,1.0,2.0,91,0.00,,,0.00,Wunderground v.1.15,2013-02-15 03:49:00,
2013-02-14 22:54:00,30.2,27.9,29.97,SW,215,1.0,3.0,91,0.00,,,0.00,Wunderground v.1.15,2013-02-15 03:54:00,
2013-02-14 22:59:00,30.3,28.3,29.97,SSW,205,2.0,3.0,92,0.00,,,0.00,Wunderground v.1.15,2013-02-15 03:59:00,
2013-02-14 23:04:00,30.3,28.3,29.97,SW,226,2.0,2.0,92,0.00,,,0.00,Wunderground v.1.15,2013-02-15 04:04:00,
2013-02-14 23:10:00,30.4,28.4,29.97,South,180,2.0,3.0,92,0.00,,,0.00,Wunderground v.1.15,2013-02-15 04:10:00,
2013-02-14 23:15:00,30.5,28.7,29.97,SSW,195,2.0,3.0,93,0.00,,,0.00,Wunderground v.1.15,2013-02-15 04:15:00,
2013-02-14 23:20:00,30.6,28.8,29.97,SSW,195,2.0,2.0,93,0.00,,,0.00,Wunderground v.1.15,2013-02-15 04:20:00,
2013-02-14 23:25:00,30.7,28.9,29.96,South,187,3.0,4.0,93,0.00,,,0.00,Wunderground v.1.15,2013-02-15 04:25:00,
2013-02-14 23:30:00,30.8,28.8,29.96,SW,235,3.0,3.0,92,0.00,,,0.00,Wunderground v.1.15,2013-02-15 04:30:00,
2013-02-14 23:36:00,31.0,28.9,29.96,SW,236,3.0,9.0,92,0.00,,,0.00,Wunderground v.1.15,2013-02-15 04:36:00,
2013-02-14 23:41:00,31.1,28.8,29.96,West,278,3.0,3.0,91,0.00,,,0.00,Wunderground v.1.15,2013-02-15 04:41:00,
2013-02-14 23:46:00,31.2,28.9,29.96,SSW,193,3.0,5.0,91,0.00,,,0.00,Wunderground v.1.15,2013-02-15 04:46:00,
2013-02-14 23:51:00,31.4,29.1,29.96,WSW,249,3.0,3.0,91,0.00,,,0.00,Wunderground v.1.15,2013-02-15 04:51:00,
2013-02-14 23:56:00,31.5,29.2,29.96,SE,146,3.0,5.0,91,0.00,,,0.00,Wunderground v.1.15,2013-02-15 04:56:00,